Regional Weather Roundup
Issued by NWS

Home | Current Version | Previous Version | Graphics & Text | Print | Product List | Glossary On
Versions: 1 2 3 4 5 6 7 8 9 10 11 12 13 14 15 16 17 18 19 20 21 22 23 24 25 26 27 28 29 30 31 32 33 34 35 36 37 38 39 40 41 42 43 44 45 46 47 48 49 50
000
ASUS45 KABQ 280801
RWRNM
WEATHER ROUNDUP FOR NEW MEXICO
NATIONAL WEATHER SERVICE ALBUQUERQUE NM
200 AM MDT THU AUG 28 2014

NOTE: "FAIR" MEANS FEW OR NO CLOUDS BELOW 12,000 FEET AGL WITH NO
       SIGNIFICANT WEATHER OR OBSTRUCTIONS TO VISION.

      THIS PRODUCT IS RELEASED AS TWO VERSIONS.  ONE VERSION NEAR
      THE TOP OF THE HOUR CONTAINING PRELIMINARY DATA FROM ALBUQUERQUE
      AND OTHER STATIONS.  A FINAL VERSION WITH ADDITIONAL DATA IS
      ISSUED ABOUT 10 MINUTES AFTER THE HOUR.

NMZ501-503-504-510>518-280900-
NORTHWEST PLATEAU/NORTHCENTRAL MOUNTAINS

CITY           SKY/WX    TMP DP  RH WIND       PRES   REMARKS
FARMINGTON     CLEAR     52  47  83 N6        30.25F
LOS ALAMOS     CLEAR     57  40  53 SE3       30.33S
SANTA FE       CLEAR     53  45  74 N8        30.27S
ANGEL FIRE     FAIR      48  36  62 CALM      30.37R

$$
NMZ402-403-502-505>509-280900-
WESTCENTRAL MOUNTAINS/SOUTHWEST MOUNTAINS

CITY           SKY/WX    TMP DP  RH WIND       PRES   REMARKS
GALLUP         PTCLDY    50  40  68 CALM      30.31F
SILVER CITY    CLEAR     63  54  72 N8        30.24F

$$
NMZ407-409-411-412-280900-
SOUTHERN DESERTS

CITY           SKY/WX    TMP DP  RH WIND       PRES   REMARKS
LORDSBURG      FAIR      68  54  60 SW7       30.15F
DEMING         CLEAR     66  55  67 CALM      30.15F
LAS CRUCES     CLEAR     68  56  65 NE3       30.16F
HOLLOMAN AFB   MOCLDY    68  60  76 CALM      30.11F
ALAMOGORDO     MOCLDY    66  57  72 NE5       30.14F
T OR C         CLOUDY    66  60  81 CALM      30.19F

$$
NMZ519>523-280900-
CENTRAL VALLEYS/CENTRAL HIGHLANDS

CITY           SKY/WX    TMP DP  RH WIND       PRES   REMARKS
ALBUQUERQUE    PTCLDY    67  45  45 N8        30.23S
DOUBLE EAGLE   CLEAR     61  44  54 NW10      30.26F
CLINES CORNERS MOCLDY    54  47  77 NW8       30.30S
BELEN          FAIR      61  50  67 N8        30.22S
SOCORRO        FAIR      65  60  84 CALM      30.20S

$$
NMZ524>526-539-540-280900-
SOUTHCENTRAL MOUNTAINS

CITY           SKY/WX    TMP DP  RH WIND       PRES   REMARKS
RUIDOSO        NOT AVBL

$$
NMZ527>531-280900-
NORTHEAST HIGHLANDS/NORTHEAST PLAINS

CITY           SKY/WX    TMP DP  RH WIND       PRES   REMARKS
LAS VEGAS      PTCLDY    54  42  64 CALM      30.28S
RATON          CLEAR     53  38  56 N9        30.20S
CLAYTON        CLEAR     60  49  66 W9        30.11S

$$
NMZ532>537-280900-
EASTCENTRAL PLAINS

CITY           SKY/WX    TMP DP  RH WIND       PRES   REMARKS
TUCUMCARI      CLEAR     68  57  68 SW9       30.07F
CANNON AFB     CLEAR     66  58  73 SW5       30.12F
CLOVIS AIRPORT   N/A     64  57  77 SW6       30.14F

$$
NMZ028-029-538-280900-
SOUTHEAST PLAINS

CITY           SKY/WX    TMP DP  RH WIND       PRES   REMARKS
ROSWELL        CLEAR     70  63  78 N3        30.06F
CARLSBAD       MOCLDY    76  61  59 CALM      30.03F
HOBBS          MOCLDY    73  59  60 CALM      30.08F


$$


USA.gov is the U.S. government's official web portal to all federal, state and local government web resources and services.